| time (UTC) | temp C | wind direction | speed KPH | gust KPH | rain 1hr cm | rain 24hr cm | rain mn cm | humidity % | barometer mb |
| 20260507050100 | 5 | 0 | 0.0 | 0.0 | 0.00 | 0.00 | 0.00 | 59 | 1013.7 |
| 20260507044559 | 5 | 0 | 0.0 | 0.0 | 0.00 | 0.00 | 0.00 | 57 | 1013.6 |
| 20260507043054 | 6 | 0 | 0.0 | 1.6 | 0.00 | 0.00 | 0.00 | 56 | 1013.7 |
| 20260507041602 | 6 | 0 | 0.0 | 1.6 | 0.00 | 0.00 | 0.00 | 55 | 1013.6 |
| 20260507040054 | 6 | 0 | 0.0 | 1.6 | 0.00 | 0.00 | 0.00 | 54 | 1013.6 |
| 20260507034600 | 6 | 0 | 0.0 | 1.6 | 0.00 | 0.00 | 0.00 | 53 | 1013.6 |
| 20260507033055 | 7 | 0 | 0.0 | 1.6 | 0.00 | 0.00 | 0.00 | 52 | 1013.7 |
| 20260507031552 | 7 | 259 | 0.0 | 3.2 | 0.00 | 0.00 | 0.00 | 51 | 1013.7 |
| 20260507030056 | 7 | 0 | 0.0 | 1.6 | 0.00 | 0.00 | 0.00 | 50 | 1013.6 |
| 20260507024554 | 7 | 281 | 0.0 | 1.6 | 0.00 | 0.00 | 0.00 | 49 | 1013.6 |
| 20260507023052 | 8 | 0 | 0.0 | 3.2 | 0.00 | 0.00 | 0.00 | 48 | 1013.4 |
| 20260507021611 | 8 | 0 | 1.6 | 9.7 | 0.00 | 0.00 | 0.00 | 46 | 1013.1 |
| 20260507020109 | 8 | 0 | 1.6 | 8.0 | 0.00 | 0.00 | 0.00 | 45 | 1012.9 |
| 20260507014620 | 8 | 261 | 0.0 | 9.7 | 0.00 | 0.00 | 0.00 | 44 | 1012.8 |
| 20260507013053 | 9 | 279 | 1.6 | 11.3 | 0.00 | 0.00 | 0.00 | 44 | 1012.8 |
| 20260507011558 | 9 | 293 | 0.0 | 14.5 | 0.00 | 0.00 | 0.00 | 44 | 1012.7 |
| 20260507010052 | 10 | 286 | 1.6 | 14.5 | 0.00 | 0.00 | 0.00 | 43 | 1012.7 |
| 20260507004554 | 10 | 40 | 1.6 | 14.5 | 0.00 | 0.00 | 0.00 | 43 | 1012.7 |
| 20260507003051 | 10 | 269 | 0.0 | 11.3 | 0.00 | 0.00 | 0.00 | 42 | 1012.5 |
| 20260507001601 | 11 | 294 | 1.6 | 16.1 | 0.00 | 0.00 | 0.00 | 41 | 1012.3 |
| 20260507000121 | 11 | 316 | 1.6 | 8.0 | 0.00 | 0.00 | 0.00 | 41 | 1012.0 |
| 20260506234613 | 11 | 341 | 3.2 | 17.7 | 0.00 | 0.00 | 0.00 | 40 | 1012.0 |
| 20260506233057 | 12 | 305 | 4.8 | 14.5 | 0.00 | 0.00 | 0.00 | 40 | 1011.7 |
| 20260506231555 | 12 | 293 | 1.6 | 12.9 | 0.00 | 0.00 | 0.00 | 39 | 1011.8 |
| 20260506224555 | 12 | 309 | 3.2 | 16.1 | 0.00 | 0.00 | 0.00 | 38 | 1011.5 |
| 20260506223052 | 12 | 275 | 3.2 | 16.1 | 0.00 | 0.00 | 0.00 | 39 | 1011.4 |
| 20260506221602 | 13 | 302 | 1.6 | 14.5 | 0.00 | 0.00 | 0.00 | 38 | 1011.5 |
| 20260506220052 | 13 | 290 | 4.8 | 14.5 | 0.00 | 0.00 | 0.00 | 36 | 1011.2 |
| 20260506214551 | 13 | 41 | 3.2 | 14.5 | 0.00 | 0.00 | 0.00 | 37 | 1011.0 |
| 20260506213055 | 13 | 299 | 1.6 | 9.7 | 0.00 | 0.00 | 0.00 | 38 | 1010.9 |
| 20260506211555 | 13 | 306 | 4.8 | 14.5 | 0.00 | 0.00 | 0.00 | 36 | 1011.0 |
| 20260506210054 | 13 | 266 | 3.2 | 16.1 | 0.00 | 0.00 | 0.00 | 35 | 1011.1 |
| 20260506204552 | 13 | 264 | 3.2 | 14.5 | 0.00 | 0.00 | 0.00 | 34 | 1011.0 |
| 20260506203052 | 13 | 326 | 3.2 | 19.3 | 0.00 | 0.00 | 0.00 | 33 | 1011.1 |
| 20260506201551 | 13 | 359 | 1.6 | 9.7 | 0.00 | 0.00 | 0.00 | 34 | 1011.3 |
| 20260506200051 | 13 | 0 | 3.2 | 9.7 | 0.00 | 0.00 | 0.00 | 36 | 1011.4 |
| 20260506194550 | 13 | 244 | 1.6 | 12.9 | 0.00 | 0.00 | 0.00 | 36 | 1011.6 |
| 20260506193056 | 13 | 301 | 1.6 | 16.1 | 0.00 | 0.00 | 0.00 | 38 | 1011.8 |
| 20260506191559 | 12 | 271 | 3.2 | 14.5 | 0.00 | 0.00 | 0.00 | 39 | 1011.8 |
| 20260506190054 | 12 | 338 | 3.2 | 8.0 | 0.00 | 0.00 | 0.00 | 38 | 1011.8 |
| 20260506184558 | 13 | 285 | 1.6 | 9.7 | 0.00 | 0.00 | 0.00 | 39 | 1011.9 |
| 20260506183101 | 12 | 297 | 6.4 | 19.3 | 0.00 | 0.00 | 0.00 | 38 | 1011.8 |
| 20260506181607 | 12 | 262 | 3.2 | 12.9 | 0.00 | 0.00 | 0.00 | 38 | 1011.7 |
| 20260506180057 | 13 | 355 | 1.6 | 11.3 | 0.00 | 0.00 | 0.00 | 39 | 1011.7 |
| 20260506174552 | 12 | 297 | 4.8 | 16.1 | 0.00 | 0.00 | 0.00 | 37 | 1011.8 |
| 20260506173123 | 13 | 253 | 3.2 | 11.3 | 0.00 | 0.00 | 0.00 | 38 | 1011.8 |
| 20260506171558 | 12 | 316 | 3.2 | 17.7 | 0.00 | 0.00 | 0.00 | 38 | 1011.9 |
| 20260506170109 | 12 | 273 | 1.6 | 11.3 | 0.00 | 0.00 | 0.00 | 39 | 1011.9 |
| 20260506164556 | 12 | 345 | 1.6 | 11.3 | 0.00 | 0.00 | 0.00 | 38 | 1011.9 |
| 20260506163059 | 13 | 326 | 0.0 | 11.3 | 0.00 | 0.00 | 0.00 | 36 | 1011.8 |
| 20260506161551 | 12 | 0 | 1.6 | 12.9 | 0.00 | 0.00 | 0.00 | 39 | 1011.8 |
| 20260506160052 | 12 | 274 | 0.0 | 8.0 | 0.00 | 0.00 | 0.00 | 36 | 1011.8 |
| 20260506154609 | 11 | 277 | 1.6 | 16.1 | 0.00 | 0.00 | 0.00 | 37 | 1011.8 |
| 20260506153053 | 11 | 292 | 0.0 | 9.7 | 0.00 | 0.00 | 0.00 | 38 | 1011.7 |
| 20260506151611 | 11 | 237 | 1.6 | 6.4 | 0.00 | 0.00 | 0.00 | 36 | 1011.9 |
| 20260506150059 | 11 | 44 | 1.6 | 12.9 | 0.00 | 0.00 | 0.00 | 38 | 1011.8 |
| 20260506144604 | 11 | 296 | 1.6 | 6.4 | 0.00 | 0.00 | 0.00 | 38 | 1012.0 |
| 20260506143101 | 11 | 250 | 1.6 | 11.3 | 0.00 | 0.00 | 0.00 | 38 | 1012.0 |
| 20260506141603 | 10 | 0 | 0.0 | 3.2 | 0.00 | 0.00 | 0.00 | 42 | 1012.0 |
| 20260506140101 | 10 | 0 | 0.0 | 1.6 | 0.00 | 0.00 | 0.00 | 45 | 1011.9 |
| 20260506134556 | 9 | 0 | 0.0 | 1.6 | 0.00 | 0.13 | 0.00 | 47 | 1011.7 |
| 20260506133127 | 9 | 0 | 0.0 | 1.6 | 0.00 | 0.13 | 0.00 | 50 | 1011.4 |
| 20260506131555 | 8 | 360 | 0.0 | 0.0 | 0.00 | 0.13 | 0.00 | 55 | 1011.2 |
| 20260506130121 | 8 | 0 | 0.0 | 0.0 | 0.00 | 0.13 | 0.00 | 60 | 1011.4 |
| 20260506124554 | 7 | 0 | 0.0 | 0.0 | 0.00 | 0.33 | 0.00 | 64 | 1011.1 |
| 20260506123050 | 7 | 0 | 0.0 | 1.6 | 0.00 | 0.33 | 0.00 | 66 | 1011.0 |
| 20260506121553 | 6 | 0 | 0.0 | 1.6 | 0.00 | 0.33 | 0.00 | 69 | 1010.8 |
| 20260506120053 | 5 | 0 | 0.0 | 0.0 | 0.00 | 0.33 | 0.00 | 71 | 1010.8 |
| 20260506114556 | 5 | 0 | 0.0 | 0.0 | 0.00 | 0.36 | 0.00 | 73 | 1010.8 |
| 20260506113050 | 4 | 0 | 0.0 | 0.0 | 0.00 | 0.36 | 0.00 | 73 | 1010.6 |
| 20260506111553 | 4 | 0 | 0.0 | 1.6 | 0.00 | 0.36 | 0.00 | 74 | 1010.4 |
| 20260506110051 | 4 | 0 | 0.0 | 0.0 | 0.00 | 0.36 | 0.00 | 74 | 1010.3 |
| 20260506104614 | 4 | 0 | 0.0 | 0.0 | 0.00 | 0.36 | 0.00 | 73 | 1010.0 |
| 20260506103052 | 4 | 0 | 0.0 | 0.0 | 0.00 | 0.36 | 0.00 | 71 | 1009.7 |
| 20260506101553 | 5 | 0 | 0.0 | 0.0 | 0.00 | 0.36 | 0.00 | 70 | 1009.5 |
| 20260506100055 | 5 | 0 | 0.0 | 0.0 | 0.00 | 0.36 | 0.00 | 68 | 1009.6 |
| 20260506094552 | 5 | 0 | 0.0 | 0.0 | 0.00 | 0.36 | 0.00 | 66 | 1009.6 |
| 20260506093052 | 5 | 0 | 0.0 | 0.0 | 0.00 | 0.36 | 0.00 | 65 | 1009.8 |
| 20260506091555 | 5 | 0 | 0.0 | 0.0 | 0.00 | 0.36 | 0.00 | 65 | 1009.5 |
| 20260506090057 | 6 | 0 | 0.0 | 0.0 | 0.00 | 0.36 | 0.00 | 63 | 1009.7 |
| 20260506084553 | 6 | 0 | 0.0 | 0.0 | 0.00 | 0.36 | 0.00 | 60 | 1009.6 |
| 20260506083058 | 6 | 0 | 0.0 | 0.0 | 0.00 | 0.36 | 0.00 | 57 | 1009.5 |
| 20260506081558 | 7 | 0 | 0.0 | 1.6 | 0.00 | 0.36 | 0.00 | 56 | 1009.5 |
| 20260506073054 | 7 | 0 | 0.0 | 1.6 | 0.00 | 0.36 | 0.00 | 54 | 1009.1 |
| 20260506071606 | 8 | 0 | 0.0 | 1.6 | 0.00 | 0.36 | 0.00 | 54 | 1009.0 |
| 20260506061551 | 9 | 0 | 0.0 | 4.8 | 0.00 | 0.36 | 0.00 | 48 | 1008.9 |